Torna al catalogo

COSMOS 1375 DEB

AttivoLEO
NORAD 16208·DEBRIS·🇷🇺 Russia

Lanciato Jun 6, 1982 da Plesetsk Cosmodrome

Loading…

Prossimi Passaggi (prossime 24 ore)

TLE

AggiornatoSource: Space-Track

Epoca: Sep 14, 2026, 21:29 UTC

1 16208U 82055K   26257.89548522 -.00000036  00000-0  45258-4 0  9990
2 16208  65.8333 123.8079 0046301 202.7459 175.4230 13.76193040 54533

Traccia COSMOS 1375 DEB in tempo reale con AllMySat

Download on the App Store